"read_dt","SO2 (ppb)","flags","PMT voltage (V)","lamp voltage (V)","lamp intensity (Hz)","internal temp (C)","react chamber temp (C)","sample flow (l/min)","pres (mmHg)","SO2 bkg (ppb)","SO2 coefficient"
2016-03-25 00:00:00,1763E-3,5C000400,-0724,0834,12225,021.5,045.3,0.266,758.5,01.16,0.508
2016-03-25 00:01:00,1695E-3,5C000400,-0724,0835,12038,021.5,045.3,0.267,758.6,01.16,0.508
2016-03-25 00:02:00,1907E-3,5C000400,-0724,0835,12228,021.5,045.3,0.266,758.4,01.16,0.508
2016-03-25 00:03:00,1718E-3,5C000400,-0724,0834,12056,021.6,045.3,0.267,758.4,01.16,0.508
2016-03-25 00:04:00,1898E-3,5C000400,-0724,0834,12139,021.6,045.3,0.266,758.4,01.16,0.508
2016-03-25 00:05:00,1799E-3,5C000400,-0724,0835,12296,021.5,045.3,0.266,758.4,01.16,0.508
2016-03-25 00:06:00,1745E-3,5C000400,-0724,0835,12139,021.5,045.3,0.266,758.4,01.16,0.508
2016-03-25 00:07:00,1889E-3,5C000400,-0724,0834,12262,021.6,045.3,0.266,758.4,01.16,0.508
2016-03-25 00:08:00,1743E-3,5C000400,-0724,0834,12116,021.6,045.3,0.266,758.4,01.16,0.508
2016-03-25 00:09:00,1736E-3,5C000400,-0724,0834,12140,021.5,045.3,0.267,758.4,01.16,0.508
2016-03-25 00:10:00,1811E-3,5C000400,-0724,0834,12064,021.6,045.2,0.266,758.4,01.16,0.508
2016-03-25 00:11:00,1724E-3,5C000400,-0724,0834,12138,021.6,045.3,0.266,758.4,01.16,0.508
2016-03-25 00:12:00,1806E-3,5C000400,-0724,0835,11970,021.6,045.3,0.267,758.4,01.16,0.508
2016-03-25 00:13:00,1723E-3,5C000400,-0724,0834,12000,021.6,045.3,0.266,758.3,01.16,0.508
2016-03-25 00:14:00,1761E-3,5C000400,-0724,0835,12171,021.6,045.3,0.266,758.4,01.16,0.508
2016-03-25 00:15:00,1725E-3,5C000400,-0724,0834,12028,021.6,045.3,0.267,758.3,01.16,0.508
2016-03-25 00:16:00,1791E-3,5C000400,-0724,0834,12110,021.6,045.3,0.266,758.3,01.16,0.508
2016-03-25 00:17:00,1813E-3,5C000400,-0724,0834,12136,021.6,045.3,0.266,758.3,01.16,0.508
2016-03-25 00:18:00,1820E-3,5C000400,-0724,0835,12143,021.6,045.2,0.267,758.2,01.16,0.508
2016-03-25 00:19:00,1815E-3,5C000400,-0724,0834,12167,021.6,045.3,0.266,758.3,01.16,0.508
2016-03-25 00:20:00,1868E-3,5C000400,-0724,0835,12221,021.6,045.3,0.266,758.2,01.16,0.508
2016-03-25 00:21:00,1826E-3,5C000400,-0724,0835,12162,021.7,045.3,0.266,758.2,01.16,0.508
2016-03-25 00:22:00,1908E-3,5C000400,-0724,0834,12175,021.7,045.3,0.266,758.2,01.16,0.508
2016-03-25 00:23:00,1892E-3,5C000400,-0724,0835,12006,021.6,045.3,0.266,758.1,01.16,0.508
2016-03-25 00:24:00,1940E-3,5C000400,-0724,0834,12122,021.7,045.3,0.266,758.1,01.16,0.508
2016-03-25 00:25:00,1849E-3,5C000400,-0724,0835,12187,021.7,045.3,0.266,758.1,01.16,0.508
2016-03-25 00:26:00,1889E-3,5C000400,-0724,0835,12108,021.7,045.3,0.266,758.0,01.16,0.508
2016-03-25 00:27:00,1891E-3,5C000400,-0724,0834,12199,021.7,045.3,0.266,758.0,01.16,0.508
2016-03-25 00:28:00,1910E-3,5C000400,-0724,0835,12034,021.7,045.3,0.266,758.0,01.16,0.508
2016-03-25 00:29:00,1742E-3,5C000400,-0724,0834,12153,021.7,045.3,0.266,758.1,01.16,0.508
2016-03-25 00:30:00,1791E-3,5C000400,-0724,0835,12246,021.7,045.3,0.266,758.1,01.16,0.508
2016-03-25 00:31:00,1806E-3,5C000400,-0724,0834,12168,021.7,045.3,0.266,758.1,01.16,0.508
2016-03-25 00:32:00,1889E-3,5C000400,-0724,0835,12202,021.7,045.3,0.266,758.1,01.16,0.508
2016-03-25 00:33:00,1839E-3,5C000400,-0724,0834,12147,021.7,045.3,0.266,758.0,01.16,0.508
2016-03-25 00:34:00,1848E-3,5C000400,-0724,0835,12125,021.7,045.3,0.266,758.0,01.16,0.508
2016-03-25 00:35:00,1880E-3,5C000400,-0724,0835,12207,021.8,045.3,0.266,758.0,01.16,0.508
2016-03-25 00:36:00,1839E-3,5C000400,-0724,0834,12102,021.8,045.3,0.266,758.0,01.16,0.508
2016-03-25 00:37:00,1761E-3,5C000400,-0724,0834,12166,021.7,045.3,0.266,758.0,01.16,0.508
2016-03-25 00:38:00,1805E-3,5C000400,-0724,0835,12128,021.7,045.3,0.266,758.0,01.16,0.508
2016-03-25 00:39:00,1743E-3,5C000400,-0724,0835,12248,021.8,045.3,0.266,758.0,01.16,0.508
2016-03-25 00:40:00,1979E-3,5C000400,-0724,0835,12124,021.8,045.3,0.266,758.0,01.16,0.508
2016-03-25 00:41:00,1858E-3,5C000400,-0724,0835,11960,021.8,045.3,0.266,758.0,01.16,0.508
2016-03-25 00:42:00,2003E-3,5C000400,-0724,0835,12381,021.8,045.3,0.266,758.0,01.16,0.508
2016-03-25 00:43:00,1879E-3,5C000400,-0724,0835,12049,021.8,045.3,0.266,758.0,01.16,0.508
2016-03-25 00:44:00,1864E-3,5C000400,-0724,0834,12227,021.8,045.3,0.266,758.0,01.16,0.508
2016-03-25 00:45:00,1750E-3,5C000400,-0724,0834,12257,021.8,045.3,0.266,758.0,01.16,0.508
2016-03-25 00:46:00,1917E-3,5C000400,-0724,0834,12266,021.8,045.3,0.266,758.0,01.16,0.508
2016-03-25 00:47:00,1849E-3,5C000400,-0724,0834,12125,021.8,045.3,0.266,758.1,01.16,0.508
2016-03-25 00:48:00,1853E-3,5C000400,-0724,0834,12148,021.8,045.3,0.266,758.0,01.16,0.508
2016-03-25 00:49:00,1826E-3,5C000400,-0724,0834,12186,021.8,045.3,0.266,758.0,01.16,0.508
2016-03-25 00:50:00,1756E-3,5C000400,-0724,0833,12306,021.8,045.3,0.266,758.0,01.16,0.508
2016-03-25 00:51:00,1906E-3,5C000400,-0724,0835,12218,021.8,045.3,0.266,758.0,01.16,0.508
2016-03-25 00:52:00,1966E-3,5C000400,-0724,0834,12196,021.8,045.3,0.266,758.0,01.16,0.508
2016-03-25 00:53:00,1814E-3,5C000400,-0724,0834,12169,021.8,045.2,0.266,758.0,01.16,0.508
2016-03-25 00:54:00,1859E-3,5C000400,-0724,0834,12047,021.8,045.3,0.266,758.0,01.16,0.508
2016-03-25 00:55:00,1709E-3,5C000400,-0724,0834,12105,021.8,045.3,0.266,758.0,01.16,0.508
2016-03-25 00:56:00,1760E-3,5C000400,-0724,0834,12056,021.8,045.2,0.266,758.0,01.16,0.508
2016-03-25 00:57:00,1888E-3,5C000400,-0724,0834,12342,021.8,045.3,0.266,758.0,01.16,0.508
2016-03-25 00:58:00,1871E-3,5C000400,-0724,0835,12114,021.9,045.3,0.266,758.0,01.16,0.508
2016-03-25 00:59:00,1806E-3,5C000400,-0724,0834,12227,021.9,045.3,0.266,758.0,01.16,0.508
2016-03-25 01:00:00,1823E-3,5C000400,-0724,0834,12173,021.9,045.3,0.266,758.1,01.16,0.508
2016-03-25 01:01:00,1855E-3,5C000400,-0724,0835,12070,021.9,045.3,0.266,758.1,01.16,0.508
2016-03-25 01:02:00,1760E-3,5C000400,-0724,0834,12274,021.9,045.3,0.266,758.1,01.16,0.508
2016-03-25 01:03:00,1738E-3,5C000400,-0724,0835,12187,021.9,045.3,0.266,758.0,01.16,0.508
2016-03-25 01:04:00,1992E-3,5C000400,-0724,0835,12257,021.9,045.3,0.266,758.0,01.16,0.508
2016-03-25 01:05:00,1904E-3,5C000400,-0724,0834,12128,021.9,045.3,0.266,758.0,01.16,0.508
2016-03-25 01:06:00,1799E-3,5C000400,-0724,0835,12259,021.9,045.3,0.266,757.9,01.16,0.508
2016-03-25 01:07:00,1862E-3,5C000400,-0724,0835,12047,021.9,045.3,0.266,757.9,01.16,0.508
2016-03-25 01:08:00,1717E-3,5C000400,-0724,0834,12132,021.9,045.3,0.266,757.9,01.16,0.508
2016-03-25 01:09:00,1916E-3,5C000400,-0724,0835,12165,021.9,045.3,0.265,757.9,01.16,0.508
2016-03-25 01:10:00,1710E-3,5C000400,-0724,0835,12093,021.9,045.3,0.266,757.8,01.16,0.508
2016-03-25 01:11:00,1848E-3,5C000400,-0724,0834,12174,021.9,045.3,0.266,757.9,01.16,0.508
2016-03-25 01:12:00,1785E-3,5C000400,-0724,0833,12039,021.9,045.2,0.266,757.8,01.16,0.508
2016-03-25 01:13:00,1949E-3,5C000400,-0724,0834,12235,021.9,045.2,0.266,757.8,01.16,0.508
2016-03-25 01:14:00,1795E-3,5C000400,-0724,0834,12128,021.9,045.3,0.265,757.8,01.16,0.508
2016-03-25 01:15:00,1596E-3,5C000400,-0724,0835,12324,021.9,045.3,0.266,757.8,01.16,0.508
2016-03-25 01:16:00,1847E-3,5C000400,-0724,0835,12200,021.9,045.3,0.266,757.7,01.16,0.508
2016-03-25 01:17:00,1958E-3,5C000400,-0724,0835,12244,021.9,045.3,0.266,757.8,01.16,0.508
2016-03-25 01:18:00,1875E-3,5C000400,-0724,0834,12155,022.0,045.3,0.266,757.8,01.16,0.508
2016-03-25 01:19:00,1964E-3,5C000400,-0724,0834,12118,022.0,045.3,0.265,757.8,01.16,0.508
2016-03-25 01:20:00,1725E-3,5C000400,-0724,0834,12199,022.0,045.3,0.266,757.7,01.16,0.508
2016-03-25 01:21:00,1781E-3,5C000400,-0724,0835,12187,021.9,045.3,0.266,757.6,01.16,0.508
2016-03-25 01:22:00,1891E-3,5C000400,-0724,0834,12111,022.0,045.3,0.265,757.6,01.16,0.508
2016-03-25 01:23:00,1844E-3,5C000400,-0724,0834,12212,022.0,045.3,0.266,757.7,01.16,0.508
2016-03-25 01:24:00,1882E-3,5C000400,-0724,0834,12166,022.0,045.3,0.266,757.7,01.16,0.508
2016-03-25 01:25:00,1820E-3,5C000400,-0724,0835,12203,022.0,045.3,0.266,757.7,01.16,0.508
2016-03-25 01:26:00,1877E-3,5C000400,-0724,0835,12216,022.0,045.3,0.266,757.7,01.16,0.508
2016-03-25 01:27:00,1955E-3,5C000400,-0724,0835,12258,022.0,045.3,0.265,757.6,01.16,0.508
2016-03-25 01:28:00,1803E-3,5C000400,-0724,0835,12198,022.0,045.3,0.266,757.6,01.16,0.508
2016-03-25 01:29:00,1765E-3,5C000400,-0724,0835,12256,022.0,045.3,0.266,757.6,01.16,0.508
2016-03-25 01:30:00,1813E-3,5C000400,-0724,0834,12128,022.0,045.3,0.265,757.5,01.16,0.508
2016-03-25 01:31:00,1766E-3,5C000400,-0724,0835,12221,022.0,045.3,0.266,757.6,01.16,0.508
2016-03-25 01:32:00,1800E-3,5C000400,-0724,0834,12115,022.0,045.3,0.265,757.7,01.16,0.508
2016-03-25 01:33:00,1913E-3,5C000400,-0724,0835,12158,022.0,045.3,0.266,757.5,01.16,0.508
2016-03-25 01:34:00,1824E-3,5C000400,-0724,0834,12146,022.0,045.3,0.266,757.5,01.16,0.508
2016-03-25 01:35:00,1878E-3,5C000400,-0724,0834,12080,022.0,045.3,0.265,757.6,01.16,0.508
2016-03-25 01:36:00,1950E-3,5C000400,-0724,0835,12093,022.0,045.3,0.266,757.5,01.16,0.508
2016-03-25 01:37:00,1958E-3,5C000400,-0724,0835,12196,022.0,045.3,0.266,757.4,01.16,0.508
2016-03-25 01:38:00,1965E-3,5C000400,-0724,0835,12199,022.1,045.3,0.265,757.5,01.16,0.508
2016-03-25 01:39:00,1861E-3,5C000400,-0724,0834,12110,022.1,045.3,0.266,757.5,01.16,0.508
2016-03-25 01:40:00,1927E-3,5C000400,-0724,0835,12338,022.0,045.3,0.266,757.4,01.16,0.508
2016-03-25 01:41:00,1749E-3,5C000400,-0724,0834,12128,022.0,045.3,0.266,757.5,01.16,0.508
2016-03-25 01:42:00,1674E-3,5C000400,-0724,0834,11906,022.0,045.3,0.266,757.4,01.16,0.508
2016-03-25 01:43:00,1889E-3,5C000400,-0724,0835,12174,022.1,045.3,0.266,757.4,01.16,0.508
2016-03-25 01:44:00,1777E-3,5C000400,-0724,0835,12108,022.1,045.3,0.266,757.4,01.16,0.508
2016-03-25 01:45:00,1869E-3,5C000400,-0724,0835,12055,022.1,045.3,0.266,757.4,01.16,0.508
2016-03-25 01:46:00,1852E-3,5C000400,-0724,0835,12129,022.1,045.3,0.265,757.4,01.16,0.508
2016-03-25 01:47:00,1824E-3,5C000400,-0724,0835,12139,022.1,045.2,0.266,757.4,01.16,0.508
2016-03-25 01:48:00,2065E-3,5C000400,-0724,0834,12086,022.1,045.3,0.266,757.4,01.16,0.508
2016-03-25 01:49:00,1918E-3,5C000400,-0724,0834,12176,022.1,045.3,0.265,757.4,01.16,0.508
2016-03-25 01:50:00,1900E-3,5C000400,-0724,0835,12188,022.1,045.3,0.266,757.5,01.16,0.508
2016-03-25 01:51:00,1898E-3,5C000400,-0724,0835,12140,022.1,045.3,0.266,757.5,01.16,0.508
2016-03-25 01:52:00,1904E-3,5C000400,-0724,0835,12131,022.1,045.3,0.265,757.4,01.16,0.508
2016-03-25 01:53:00,1846E-3,5C000400,-0724,0835,12235,022.1,045.3,0.266,757.5,01.16,0.508
2016-03-25 01:54:00,1872E-3,5C000400,-0724,0834,12239,022.1,045.3,0.265,757.6,01.16,0.508
2016-03-25 01:55:00,1850E-3,5C000400,-0724,0835,12298,022.1,045.3,0.266,757.5,01.16,0.508
2016-03-25 01:56:00,1922E-3,5C000400,-0724,0835,12218,022.1,045.3,0.265,757.5,01.16,0.508
2016-03-25 01:57:00,1986E-3,5C000400,-0724,0835,12229,022.1,045.3,0.265,757.6,01.16,0.508
2016-03-25 01:58:00,1737E-3,5C000400,-0724,0833,12137,022.1,045.3,0.266,757.6,01.16,0.508
2016-03-25 01:59:00,1860E-3,5C000400,-0724,0835,12297,022.1,045.3,0.265,757.6,01.16,0.508
2016-03-25 02:00:00,1778E-3,5C000400,-0724,0835,11999,022.1,045.3,0.265,757.6,01.16,0.508
2016-03-25 02:01:00,1850E-3,5C000400,-0724,0834,12265,022.2,045.3,0.265,757.6,01.16,0.508
2016-03-25 02:02:00,1819E-3,5C000400,-0724,0835,12181,022.2,045.3,0.265,757.6,01.16,0.508
2016-03-25 02:03:00,1900E-3,5C000400,-0724,0834,12153,022.2,045.3,0.266,757.6,01.16,0.508
2016-03-25 02:04:00,1877E-3,5C000400,-0724,0835,12158,022.2,045.3,0.265,757.5,01.16,0.508
2016-03-25 02:05:00,1783E-3,5C000400,-0724,0835,12163,022.2,045.3,0.265,757.5,01.16,0.508
2016-03-25 02:06:00,1809E-3,5C000400,-0724,0835,12068,022.2,045.3,0.265,757.4,01.16,0.508
2016-03-25 02:07:00,1907E-3,5C000400,-0724,0835,12224,022.2,045.3,0.265,757.5,01.16,0.508
2016-03-25 02:08:00,1791E-3,5C000400,-0724,0835,12240,022.2,045.3,0.265,757.5,01.16,0.508
2016-03-25 02:09:00,1937E-3,5C000400,-0724,0835,12196,022.2,045.3,0.265,757.4,01.16,0.508
2016-03-25 02:10:00,1736E-3,5C000400,-0724,0834,12206,022.2,045.3,0.266,757.5,01.16,0.508
2016-03-25 02:11:00,1837E-3,5C000400,-0724,0834,12123,022.2,045.3,0.265,757.5,01.16,0.508
2016-03-25 02:12:00,1760E-3,5C000400,-0724,0835,12069,022.2,045.3,0.265,757.5,01.16,0.508
2016-03-25 02:13:00,1718E-3,5C000400,-0724,0834,12248,022.2,045.3,0.265,757.5,01.16,0.508
2016-03-25 02:14:00,1802E-3,5C000400,-0724,0834,12245,022.2,045.3,0.265,757.4,01.16,0.508
2016-03-25 02:15:00,1775E-3,5C000400,-0724,0835,11849,022.3,045.3,0.265,757.5,01.16,0.508
2016-03-25 02:16:00,1914E-3,5C000400,-0724,0834,12282,022.2,045.3,0.265,757.4,01.16,0.508
2016-03-25 02:17:00,1761E-3,5C000400,-0724,0835,12062,022.3,045.3,0.265,757.5,01.16,0.508
2016-03-25 02:18:00,1852E-3,5C000400,-0724,0835,12004,022.3,045.3,0.265,757.5,01.16,0.508
2016-03-25 02:19:00,1913E-3,5C000400,-0724,0834,11982,022.3,045.3,0.265,757.4,01.16,0.508
2016-03-25 02:20:00,1841E-3,5C000400,-0724,0834,12252,022.3,045.3,0.265,757.6,01.16,0.508
2016-03-25 02:21:00,1855E-3,5C000400,-0724,0835,12221,022.3,045.3,0.265,757.4,01.16,0.508
2016-03-25 02:22:00,1817E-3,5C000400,-0724,0835,12158,022.3,045.3,0.265,757.4,01.16,0.508
2016-03-25 02:23:00,1904E-3,5C000400,-0724,0834,12115,022.3,045.3,0.265,757.5,01.16,0.508
2016-03-25 02:24:00,1884E-3,5C000400,-0724,0835,12169,022.3,045.3,0.265,757.5,01.16,0.508
2016-03-25 02:25:00,1846E-3,5C000400,-0724,0834,12255,022.3,045.3,0.265,757.4,01.16,0.508
2016-03-25 02:26:00,1778E-3,5C000400,-0724,0835,12265,022.3,045.3,0.265,757.4,01.16,0.508
2016-03-25 02:27:00,1842E-3,5C000400,-0724,0835,12193,022.3,045.3,0.265,757.4,01.16,0.508
2016-03-25 02:28:00,1731E-3,5C000400,-0724,0835,12103,022.3,045.3,0.265,757.5,01.16,0.508
2016-03-25 02:29:00,1813E-3,5C000400,-0724,0834,12208,022.3,045.3,0.265,757.5,01.16,0.508
2016-03-25 02:30:00,1888E-3,5C000400,-0724,0834,12246,022.3,045.3,0.265,757.5,01.16,0.508
2016-03-25 02:31:00,1856E-3,5C000400,-0724,0835,12189,022.3,045.3,0.265,757.5,01.16,0.508
2016-03-25 02:32:00,1879E-3,5C000400,-0724,0834,12138,022.3,045.3,0.265,757.5,01.16,0.508
2016-03-25 02:33:00,1757E-3,5C000400,-0724,0834,12017,022.4,045.3,0.265,757.5,01.16,0.508
2016-03-25 02:34:00,1879E-3,5C000400,-0724,0835,11993,022.3,045.3,0.265,757.6,01.16,0.508
2016-03-25 02:35:00,1897E-3,5C000400,-0724,0834,12110,022.3,045.3,0.265,757.4,01.16,0.508
2016-03-25 02:36:00,1807E-3,5C000400,-0724,0834,12121,022.3,045.3,0.265,757.4,01.16,0.508
2016-03-25 02:37:00,1755E-3,5C000400,-0724,0834,12151,022.3,045.3,0.265,757.5,01.16,0.508
2016-03-25 02:38:00,1815E-3,5C000400,-0724,0834,12133,022.4,045.3,0.265,757.3,01.16,0.508
2016-03-25 02:39:00,1924E-3,5C000400,-0724,0834,12184,022.4,045.3,0.265,757.4,01.16,0.508
2016-03-25 02:40:00,1771E-3,5C000400,-0724,0834,12164,022.4,045.3,0.265,757.5,01.16,0.508
2016-03-25 02:41:00,1854E-3,5C000400,-0724,0834,11986,022.4,045.3,0.265,757.5,01.16,0.508
2016-03-25 02:42:00,1752E-3,5C000400,-0724,0835,12299,022.4,045.3,0.265,757.4,01.16,0.508
2016-03-25 02:43:00,1785E-3,5C000400,-0724,0835,12205,022.4,045.3,0.265,757.4,01.16,0.508
2016-03-25 02:44:00,1698E-3,5C000400,-0724,0834,11998,022.4,045.3,0.265,757.4,01.16,0.508
2016-03-25 02:45:00,1905E-3,5C000400,-0724,0835,12240,022.4,045.3,0.265,757.4,01.16,0.508
2016-03-25 02:46:00,1857E-3,5C000400,-0724,0836,12241,022.4,045.3,0.265,757.4,01.16,0.508
2016-03-25 02:47:00,1780E-3,5C000400,-0724,0835,12211,022.4,045.3,0.264,757.4,01.16,0.508
2016-03-25 02:48:00,1896E-3,5C000400,-0724,0834,11941,022.4,045.3,0.265,757.4,01.16,0.508
2016-03-25 02:49:00,1748E-3,5C000400,-0724,0834,12078,022.4,045.3,0.265,757.4,01.16,0.508
2016-03-25 02:50:00,1880E-3,5C000400,-0724,0834,12188,022.4,045.3,0.265,757.4,01.16,0.508
2016-03-25 02:51:00,1788E-3,5C000400,-0724,0835,12060,022.4,045.3,0.265,757.4,01.16,0.508
2016-03-25 02:52:00,1911E-3,5C000400,-0724,0834,12115,022.4,045.3,0.265,757.4,01.16,0.508
2016-03-25 02:53:00,1788E-3,5C000400,-0724,0834,12315,022.5,045.3,0.265,757.4,01.16,0.508
2016-03-25 02:54:00,1752E-3,5C000400,-0724,0834,11994,022.5,045.3,0.264,757.4,01.16,0.508
2016-03-25 02:55:00,1740E-3,5C000400,-0724,0835,12081,022.5,045.3,0.265,757.5,01.16,0.508
2016-03-25 02:56:00,1757E-3,5C000400,-0724,0834,12031,022.5,045.3,0.265,757.5,01.16,0.508
2016-03-25 02:57:00,1859E-3,5C000400,-0724,0834,12225,022.5,045.3,0.265,757.4,01.16,0.508
2016-03-25 02:58:00,1866E-3,5C000400,-0724,0834,12057,022.5,045.3,0.265,757.5,01.16,0.508
2016-03-25 02:59:00,1836E-3,5C000400,-0724,0835,12110,022.5,045.3,0.265,757.5,01.16,0.508
2016-03-25 03:00:00,1884E-3,5C000400,-0724,0834,12093,022.5,045.3,0.265,757.5,01.16,0.508
2016-03-25 03:01:00,1688E-3,5C000400,-0724,0834,12174,022.5,045.3,0.264,757.4,01.16,0.508
2016-03-25 03:02:00,1729E-3,5C000400,-0724,0834,12030,022.5,045.3,0.265,757.4,01.16,0.508
2016-03-25 03:03:00,1889E-3,5C000400,-0724,0834,12004,022.5,045.3,0.264,757.4,01.16,0.508
2016-03-25 03:04:00,1902E-3,5C000400,-0724,0834,12165,022.5,045.3,0.265,757.5,01.16,0.508
2016-03-25 03:05:00,1706E-3,5C000400,-0724,0834,12299,022.5,045.3,0.265,757.5,01.16,0.508
2016-03-25 03:06:00,1919E-3,5C000400,-0724,0834,12078,022.5,045.3,0.265,757.5,01.16,0.508
2016-03-25 03:07:00,1868E-3,5C000400,-0724,0834,12232,022.5,045.3,0.265,757.5,01.16,0.508
2016-03-25 03:08:00,1829E-3,5C000400,-0724,0834,12206,022.5,045.3,0.265,757.5,01.16,0.508
2016-03-25 03:09:00,1783E-3,5C000400,-0724,0834,12084,022.6,045.3,0.265,757.5,01.16,0.508
2016-03-25 03:10:00,1772E-3,5C000400,-0724,0834,12072,022.6,045.3,0.265,757.6,01.16,0.508
2016-03-25 03:11:00,1728E-3,5C000400,-0724,0834,12279,022.6,045.3,0.265,757.6,01.16,0.508
2016-03-25 03:12:00,1922E-3,5C000400,-0724,0834,12131,022.6,045.3,0.265,757.5,01.16,0.508
2016-03-25 03:13:00,1825E-3,5C000400,-0724,0834,12293,022.6,045.3,0.265,757.5,01.16,0.508
2016-03-25 03:14:00,1749E-3,5C000400,-0724,0834,12218,022.6,045.3,0.264,757.5,01.16,0.508
2016-03-25 03:15:00,1899E-3,5C000400,-0724,0834,12197,022.6,045.3,0.265,757.5,01.16,0.508
2016-03-25 03:16:00,1807E-3,5C000400,-0724,0835,11979,022.6,045.3,0.264,757.6,01.16,0.508
2016-03-25 03:17:00,1829E-3,5C000400,-0724,0834,12127,022.6,045.3,0.265,757.6,01.16,0.508
2016-03-25 03:18:00,1785E-3,5C000400,-0724,0834,12167,022.6,045.3,0.264,757.6,01.16,0.508
2016-03-25 03:19:00,1815E-3,5C000400,-0724,0834,12092,022.6,045.3,0.265,757.5,01.16,0.508
2016-03-25 03:20:00,1864E-3,5C000400,-0724,0834,12068,022.6,045.3,0.264,757.6,01.16,0.508
2016-03-25 03:21:00,1841E-3,5C000400,-0724,0835,12205,022.7,045.3,0.265,757.6,01.16,0.508
2016-03-25 03:22:00,1846E-3,5C000400,-0724,0834,12166,022.6,045.3,0.264,757.6,01.16,0.508
2016-03-25 03:23:00,1864E-3,5C000400,-0724,0834,12297,022.6,045.3,0.265,757.6,01.16,0.508
2016-03-25 03:24:00,1816E-3,5C000400,-0724,0834,12161,022.6,045.3,0.264,757.5,01.16,0.508
2016-03-25 03:25:00,1814E-3,5C000400,-0724,0834,12110,022.7,045.3,0.265,757.6,01.16,0.508
2016-03-25 03:26:00,1889E-3,5C000400,-0724,0834,12215,022.7,045.3,0.264,757.5,01.16,0.508
2016-03-25 03:27:00,1831E-3,5C000400,-0724,0834,12125,022.7,045.3,0.265,757.5,01.16,0.508
2016-03-25 03:28:00,1899E-3,5C000400,-0724,0834,12152,022.7,045.3,0.264,757.5,01.16,0.508
2016-03-25 03:29:00,1810E-3,5C000400,-0724,0835,12055,022.7,045.3,0.264,757.5,01.16,0.508
2016-03-25 03:30:00,1849E-3,5C000400,-0724,0834,12166,022.7,045.3,0.264,757.5,01.16,0.508
2016-03-25 03:31:00,1852E-3,5C000400,-0724,0834,12103,022.7,045.3,0.264,757.5,01.16,0.508
2016-03-25 03:32:00,1873E-3,5C000400,-0724,0834,12182,022.7,045.3,0.264,757.5,01.16,0.508
2016-03-25 03:33:00,1877E-3,5C000400,-0724,0835,12162,022.7,045.3,0.264,757.4,01.16,0.508
2016-03-25 03:34:00,1978E-3,5C000400,-0724,0835,12033,022.7,045.3,0.264,757.5,01.16,0.508
2016-03-25 03:35:00,1747E-3,5C000400,-0724,0834,12222,022.8,045.3,0.264,757.5,01.16,0.508
2016-03-25 03:36:00,1821E-3,5C000400,-0724,0834,12116,022.8,045.3,0.264,757.5,01.16,0.508
2016-03-25 03:37:00,1972E-3,5C000400,-0724,0835,12019,022.8,045.3,0.264,757.5,01.16,0.508
2016-03-25 03:38:00,1864E-3,5C000400,-0724,0835,12016,022.8,045.3,0.264,757.5,01.16,0.508
2016-03-25 03:39:00,1776E-3,5C000400,-0724,0835,12248,022.8,045.3,0.264,757.5,01.16,0.508
2016-03-25 03:40:00,1828E-3,5C000400,-0724,0834,12193,022.8,045.3,0.264,757.6,01.16,0.508
2016-03-25 03:41:00,1840E-3,5C000400,-0724,0834,12196,022.8,045.3,0.264,757.5,01.16,0.508
2016-03-25 03:42:00,1782E-3,5C000400,-0724,0834,12247,022.8,045.3,0.265,757.5,01.16,0.508
2016-03-25 03:43:00,1816E-3,5C000400,-0724,0833,12044,022.8,045.3,0.264,757.4,01.16,0.508
2016-03-25 03:44:00,1868E-3,5C000400,-0724,0835,12085,022.8,045.3,0.265,757.4,01.16,0.508
2016-03-25 03:45:00,1840E-3,5C000400,-0724,0835,12141,022.8,045.3,0.264,757.5,01.16,0.508
2016-03-25 03:46:00,1818E-3,5C000400,-0724,0835,12221,022.8,045.3,0.264,757.4,01.16,0.508
2016-03-25 03:47:00,1741E-3,5C000400,-0724,0834,12187,022.8,045.3,0.264,757.5,01.16,0.508
2016-03-25 03:48:00,1850E-3,5C000400,-0724,0834,12158,022.8,045.3,0.264,757.5,01.16,0.508
2016-03-25 03:49:00,1836E-3,5C000400,-0724,0834,12122,022.8,045.3,0.264,757.5,01.16,0.508
2016-03-25 03:50:00,1799E-3,5C000400,-0724,0834,12091,022.9,045.3,0.264,757.5,01.16,0.508
2016-03-25 03:51:00,1897E-3,5C000400,-0724,0834,12074,022.8,045.3,0.264,757.5,01.16,0.508
2016-03-25 03:52:00,1903E-3,5C000400,-0724,0835,12137,022.9,045.3,0.264,757.5,01.16,0.508
2016-03-25 03:53:00,1868E-3,5C000400,-0724,0834,12260,022.9,045.3,0.264,757.5,01.16,0.508
2016-03-25 03:54:00,1880E-3,5C000400,-0724,0835,12154,022.9,045.3,0.264,757.5,01.16,0.508
2016-03-25 03:55:00,1775E-3,5C000400,-0724,0834,12082,022.9,045.3,0.264,757.5,01.16,0.508
2016-03-25 03:56:00,1845E-3,5C000400,-0724,0835,12226,022.9,045.3,0.264,757.5,01.16,0.508
2016-03-25 03:57:00,1943E-3,5C000400,-0724,0834,12165,022.9,045.3,0.264,757.5,01.16,0.508
2016-03-25 03:58:00,1878E-3,5C000400,-0724,0834,12125,022.9,045.3,0.264,757.5,01.16,0.508
2016-03-25 03:59:00,1819E-3,5C000400,-0724,0834,12181,022.9,045.3,0.264,757.5,01.16,0.508
2016-03-25 04:00:00,1857E-3,5C000400,-0724,0834,12127,022.9,045.3,0.264,757.5,01.16,0.508
2016-03-25 04:01:00,1780E-3,5C000400,-0724,0833,12176,022.9,045.3,0.264,757.5,01.16,0.508
2016-03-25 04:02:00,1904E-3,5C000400,-0724,0834,12297,022.9,045.3,0.264,757.5,01.16,0.508
2016-03-25 04:03:00,1888E-3,5C000400,-0724,0833,12311,022.9,045.3,0.264,757.5,01.16,0.508
2016-03-25 04:04:00,1810E-3,5C000400,-0724,0835,12128,023.0,045.3,0.264,757.5,01.16,0.508
2016-03-25 04:05:00,1823E-3,5C000400,-0724,0835,12167,022.9,045.3,0.264,757.5,01.16,0.508
2016-03-25 04:06:00,1982E-3,5C000400,-0724,0834,12269,022.9,045.3,0.264,757.5,01.16,0.508
2016-03-25 04:07:00,1826E-3,5C000400,-0724,0834,12305,023.0,045.3,0.264,757.5,01.16,0.508
2016-03-25 04:08:00,1881E-3,5C000400,-0724,0835,11991,023.0,045.3,0.264,757.5,01.16,0.508
2016-03-25 04:09:00,1874E-3,5C000400,-0724,0834,12115,023.0,045.3,0.264,757.4,01.16,0.508
2016-03-25 04:10:00,1874E-3,5C000400,-0724,0834,12186,023.0,045.3,0.264,757.5,01.16,0.508
2016-03-25 04:11:00,2025E-3,5C000400,-0724,0835,12217,023.0,045.3,0.264,757.4,01.16,0.508
2016-03-25 04:12:00,1922E-3,5C000400,-0724,0834,12072,023.0,045.3,0.264,757.5,01.16,0.508
2016-03-25 04:13:00,1910E-3,5C000400,-0724,0834,12296,023.0,045.3,0.264,757.5,01.16,0.508
2016-03-25 04:14:00,1981E-3,5C000400,-0724,0834,12142,023.0,045.3,0.264,757.5,01.16,0.508
2016-03-25 04:15:00,1791E-3,5C000400,-0724,0834,12170,023.0,045.3,0.264,757.5,01.16,0.508
2016-03-25 04:16:00,1815E-3,5C000400,-0724,0835,11998,023.0,045.3,0.264,757.5,01.16,0.508
2016-03-25 04:17:00,1801E-3,5C000400,-0724,0834,12107,023.0,045.3,0.264,757.5,01.16,0.508
2016-03-25 04:18:00,1771E-3,5C000400,-0724,0835,12140,023.0,045.3,0.264,757.5,01.16,0.508
2016-03-25 04:19:00,1927E-3,5C000400,-0724,0835,12143,023.0,045.3,0.264,757.5,01.16,0.508
2016-03-25 04:20:00,1834E-3,5C000400,-0724,0834,12205,023.0,045.3,0.264,757.5,01.16,0.508